KB1DML-4 Weather Reports


time (UTC)temp
F
wind
direction
speed
knots
gust
knots
rain 1hr
in
rain 24hr
in
rain mn
in
humidity
%
barometer
mb
20260507155517 57 293 9.6 18.2 0.00 0.18 0.00 51 1002.5
20260507155016 57 293 5.2 17.4 0.00 0.18 0.00 58 1002.5
20260507154516 57 315 4.3 10.4 0.00 0.18 0.00 59 1002.5
20260507154017 57 293 3.5 11.3 0.00 0.18 0.00 59 1002.9
20260507153535 56 315 7.0 11.3 0.00 0.18 0.00 58 1002.9
20260507153036 56 293 6.1 9.6 0.00 0.18 0.00 62 1002.9
20260507152517 56 315 7.0 12.2 0.00 0.18 0.00 63 1003.0
20260507152016 56 315 4.3 12.2 0.00 0.18 0.00 62 1003.0
20260507151536 56 293 3.5 7.0 0.00 0.18 0.00 63 1003.0
20260507151016 55 293 2.6 7.0 0.00 0.18 0.00 62 1003.4
20260507150536 55 293 3.5 7.8 0.00 0.18 0.00 63 1003.4
20260507150016 55 315 5.2 11.3 0.00 0.18 0.00 62 1003.4
20260507145518 55 315 8.7 13.0 0.00 0.18 0.00 63 1003.4
20260507145044 56 293 4.3 8.7 0.00 0.18 0.00 61 1003.4
20260507144525 56 293 3.5 7.8 0.00 0.18 0.00 61 1003.4
20260507144016 56 293 2.6 6.1 0.00 0.18 0.00 59 1003.4
20260507143516 56 293 1.7 5.2 0.00 0.18 0.00 58 1003.4
20260507143105 56 270 0.9 3.5 0.00 0.18 0.00 58 1003.4
20260507142517 55 293 3.5 5.2 0.00 0.18 0.00 62 1003.3
20260507142016 55 293 4.3 7.0 0.00 0.18 0.00 62 1003.3
20260507141516 55 315 3.5 7.8 0.00 0.18 0.00 59 1003.3
20260507141036 55 315 8.7 12.2 0.00 0.18 0.00 60 1003.4
20260507140536 55 315 7.8 13.0 0.00 0.18 0.00 58 1003.4
20260507140016 55 293 4.3 7.8 0.00 0.18 0.00 59 1003.4
20260507135516 55 293 6.1 11.3 0.00 0.18 0.00 59 1003.2
20260507135024 55 315 1.7 6.1 0.00 0.18 0.00 58 1003.2
20260507134516 55 293 4.3 8.7 0.00 0.18 0.00 60 1003.2
20260507134016 55 293 3.5 6.1 0.00 0.18 0.00 61 1003.4
20260507133516 54 293 4.3 7.8 0.00 0.18 0.00 61 1003.4
20260507133025 54 293 4.3 7.8 0.00 0.18 0.00 63 1003.4
20260507132518 54 293 6.1 9.6 0.00 0.18 0.00 63 1003.5
20260507132038 53 293 6.1 10.4 0.00 0.18 0.00 63 1003.5
20260507131524 53 315 6.1 9.6 0.00 0.18 0.00 65 1003.5
20260507131024 53 315 4.3 8.7 0.00 0.18 0.00 67 1003.7
20260507130524 53 315 5.2 7.8 0.00 0.18 0.00 66 1003.7
20260507130018 53 293 6.1 9.6 0.00 0.18 0.00 67 1003.7
20260507125516 53 293 5.2 7.0 0.00 0.18 0.00 69 1003.8
20260507125016 53 293 4.3 7.8 0.00 0.18 0.00 68 1003.8
20260507124516 52 293 7.0 8.7 0.00 0.18 0.00 66 1003.8
20260507124018 52 315 6.1 8.7 0.00 0.18 0.00 70 1003.9
20260507123604 52 293 6.1 8.7 0.00 0.18 0.00 71 1003.9
20260507123018 52 315 7.0 11.3 0.00 0.18 0.00 70 1003.9
20260507122518 52 315 7.0 12.2 0.00 0.18 0.00 71 1003.9
20260507122018 51 315 6.1 10.4 0.00 0.18 0.00 75 1003.9
20260507121518 51 293 5.2 7.0 0.00 0.18 0.00 77 1003.9
20260507121016 50 293 4.3 7.8 0.00 0.18 0.00 78 1003.9
20260507120518 50 293 3.5 5.2 0.00 0.18 0.00 79 1003.9
20260507120016 50 293 4.3 6.1 0.00 0.18 0.00 80 1003.9
20260507115516 50 293 4.3 7.0 0.00 0.18 0.00 80 1003.9
20260507115025 50 293 3.5 6.1 0.00 0.18 0.00 80 1003.9
20260507114524 50 293 5.2 8.7 0.00 0.18 0.00 79 1003.9
20260507114024 50 293 5.2 8.7 0.00 0.18 0.00 79 1003.6
20260507113524 50 293 5.2 7.8 0.00 0.18 0.00 80 1003.6
20260507113024 50 293 4.3 7.8 0.00 0.18 0.00 79 1003.6
20260507112524 49 293 3.5 6.1 0.00 0.18 0.00 81 1003.5
20260507112016 49 293 3.5 6.1 0.00 0.18 0.00 81 1003.5
20260507111544 49 293 3.5 6.1 0.00 0.18 0.00 81 1003.5
20260507111018 49 293 3.5 6.1 0.00 0.18 0.00 81 1003.7
20260507110536 49 315 4.3 6.1 0.00 0.18 0.00 81 1003.7
20260507110044 49 293 4.3 7.0 0.00 0.18 0.00 81 1003.7
20260507105524 49 293 4.3 8.7 0.00 0.18 0.00 81 1003.0
20260507105024 49 293 5.2 7.8 0.00 0.18 0.00 82 1003.0
20260507104536 49 293 2.6 6.1 0.00 0.18 0.00 82 1003.0
20260507104024 49 293 3.5 7.0 0.00 0.18 0.00 81 1003.0
20260507103518 49 315 2.6 8.7 0.00 0.18 0.00 82 1003.0
20260507103024 49 293 3.5 5.2 0.00 0.18 0.00 81 1003.0
20260507102524 49 293 3.5 5.2 0.00 0.18 0.00 82 1003.0
20260507102024 49 293 3.5 6.1 0.00 0.18 0.00 81 1003.0
20260507101518 49 293 6.1 8.7 0.00 0.18 0.00 81 1003.0
20260507101016 49 293 4.3 7.0 0.00 0.18 0.00 81 1002.9
20260507100524 49 293 4.3 6.1 0.00 0.18 0.00 83 1002.9
20260507100024 49 293 3.5 7.8 0.00 0.18 0.00 83 1002.9
20260507095516 49 293 5.2 7.0 0.00 0.18 0.00 83 1002.9
20260507095016 49 293 7.0 8.7 0.00 0.18 0.00 83 1002.9
20260507094536 49 293 6.1 8.7 0.00 0.18 0.00 83 1002.9
20260507094016 49 315 6.1 8.7 0.00 0.18 0.00 84 1003.1
20260507093544 49 315 2.6 5.2 0.00 0.18 0.00 83 1003.1
20260507093024 49 315 4.3 7.8 0.00 0.18 0.00 83 1003.1
20260507092518 49 315 5.2 8.7 0.00 0.18 0.00 83 1003.3
20260507092016 49 315 5.2 9.6 0.00 0.18 0.00 83 1003.3
20260507091536 49 315 4.3 8.7 0.00 0.18 0.00 83 1003.3
20260507091024 49 315 5.2 11.3 0.00 0.18 0.00 84 1002.9
20260507090524 49 293 5.2 8.7 0.00 0.18 0.00 85 1002.9
20260507090018 49 293 5.2 7.0 0.00 0.18 0.00 84 1002.9
20260507085524 49 293 3.5 6.1 0.00 0.18 0.00 84 1003.3
20260507085018 49 315 4.3 6.1 0.00 0.18 0.00 85 1003.3
20260507084524 49 293 1.7 6.1 0.00 0.18 0.00 85 1003.3
20260507084024 49 315 4.3 6.1 0.00 0.18 0.00 84 1002.7
20260507083524 49 315 2.6 7.0 0.00 0.18 0.00 85 1002.7
20260507083016 49 315 3.5 7.0 0.00 0.18 0.00 84 1002.7
20260507082536 49 315 5.2 7.8 0.00 0.18 0.00 83 1002.8
20260507082024 50 293 4.3 5.2 0.00 0.18 0.00 83 1002.8
20260507081524 50 293 3.5 5.2 0.00 0.18 0.00 83 1002.8
20260507081016 50 293 3.5 7.0 0.00 0.18 0.00 82 1002.9
20260507080515 50 315 4.3 7.0 0.00 0.18 0.00 81 1002.9
20260507080016 51 293 4.3 8.7 0.00 0.18 0.00 81 1002.9
20260507075517 51 293 3.5 6.1 0.00 0.18 0.00 80 1003.0
20260507075044 51 293 6.1 10.4 0.00 0.18 0.00 81 1003.0
20260507074524 51 315 5.2 7.0 0.00 0.18 0.00 83 1003.0
20260507074024 51 293 5.2 8.7 0.00 0.18 0.00 82 1002.4
20260507073516 51 315 3.5 10.4 0.00 0.18 0.00 84 1002.4
20260507073016 51 293 3.5 7.0 0.00 0.18 0.00 85 1002.4
20260507072545 51 293 4.3 7.0 0.00 0.18 0.00 84 1002.3
20260507072018 51 315 3.5 4.3 0.00 0.18 0.00 85 1002.3
20260507071524 51 293 2.6 4.3 0.00 0.18 0.00 85 1002.3
20260507071024 51 293 2.6 5.2 0.00 0.18 0.00 85 1002.5
20260507070516 52 293 5.2 7.8 0.00 0.18 0.00 84 1002.5
20260507070124 52 315 3.5 5.2 0.00 0.18 0.00 85 1002.5
20260507065538 52 293 3.5 7.0 0.00 0.18 0.00 84 1002.4
20260507065024 52 293 2.6 5.2 0.00 0.18 0.00 84 1002.4
20260507064524 52 293 4.3 7.0 0.00 0.18 0.00 84 1002.4
20260507064016 52 293 2.6 5.2 0.00 0.18 0.00 84 1002.1
20260507063516 52 293 0.9 3.5 0.00 0.18 0.00 84 1002.1
20260507063016 52 293 3.5 5.2 0.00 0.18 0.00 84 1002.1
20260507062515 52 293 2.6 3.5 0.00 0.18 0.00 83 1002.1
20260507062015 52 293 1.7 3.5 0.00 0.18 0.00 83 1002.1
20260507061536 52 293 1.7 4.3 0.00 0.18 0.00 82 1002.1
20260507061018 52 315 2.6 4.3 0.00 0.18 0.00 82 1002.4
20260507060519 52 315 2.6 5.2 0.00 0.18 0.00 81 1002.4
20260507060104 52 293 3.5 5.2 0.00 0.18 0.00 82 1002.4
20260507055524 52 293 5.2 7.8 0.00 0.18 0.00 83 1002.6
20260507055017 52 293 3.5 5.2 0.00 0.18 0.00 81 1002.6
20260507054516 52 293 5.2 8.7 0.00 0.18 0.00 82 1002.6
20260507054016 52 315 5.2 9.6 0.00 0.18 0.00 82 1002.8
20260507053523 52 315 3.5 7.0 0.00 0.18 0.00 82 1002.8
20260507053023 52 293 3.5 7.8 0.00 0.18 0.00 82 1002.8
20260507052524 53 293 3.5 7.0 0.00 0.18 0.00 83 1002.9
20260507052024 53 315 2.6 5.2 0.00 0.18 0.00 83 1002.9
20260507051524 53 315 1.7 5.2 0.00 0.18 0.00 85 1002.9
20260507051017 53 293 1.7 5.2 0.00 0.18 0.00 86 1002.6
20260507050516 53 315 0.9 3.5 0.00 0.18 0.00 87 1002.6
20260507050024 53 0.0 2.6 0.00 0.18 0.00 87 1002.6
20260507045516 53 293 0.9 3.5 0.00 0.18 0.00 86 1002.4
20260507045016 53 315 3.5 5.2 0.00 0.18 0.00 86 1002.4
20260507044523 53 293 4.3 7.0 0.00 0.18 0.00 85 1002.4
20260507044017 54 293 3.5 7.0 0.00 0.18 0.00 85 1002.5
20260507043518 54 293 3.5 7.0 0.00 0.18 0.00 85 1002.5
20260507043024 54 293 4.3 7.0 0.00 0.18 0.00 85 1002.5
20260507042517 54 293 5.2 8.7 0.00 0.18 0.00 85 1002.9
20260507042024 54 293 6.1 9.6 0.00 0.18 0.00 87 1002.9
20260507041516 54 293 6.1 8.7 0.00 0.18 0.00 88 1002.9
20260507041057 54 293 7.0 10.4 0.00 0.18 0.00 88 1002.5
20260507040524 55 293 5.2 8.7 0.00 0.18 0.00 88 1002.5
20260507040036 55 293 5.2 10.4 0.00 0.18 0.18 88 1002.5
20260507035518 55 293 4.3 8.7 0.00 0.18 0.18 88 1002.2
20260507035018 56 315 4.3 8.7 0.00 0.18 0.18 88 1002.2
20260507034516 57 293 4.3 7.8 0.00 0.18 0.18 89 1002.2
20260507034016 57 293 7.0 12.2 0.00 0.18 0.18 89 1001.9
20260507033524 58 293 7.8 10.4 0.00 0.18 0.18 89 1001.9
20260507033024 58 293 7.0 11.3 0.00 0.18 0.18 88 1001.9
20260507032544 59 293 7.0 10.4 0.00 0.18 0.18 89 1001.7
20260507032044 59 293 7.8 12.2 0.00 0.18 0.18 89 1001.7
20260507031538 59 315 8.7 13.0 0.00 0.18 0.18 90 1001.7
20260507031024 59 315 6.1 12.2 0.00 0.18 0.18 92 1001.8
20260507030524 59 315 7.0 13.0 0.00 0.18 0.18 92 1001.8
20260507030018 59 270 1.7 5.2 0.00 0.18 0.18 94 1001.8
20260507025524 59 270 0.9 1.7 0.00 0.18 0.18 94 1001.4
20260507025036 59 203 0.9 1.7 0.00 0.18 0.18 94 1001.4
20260507024544 59 293 0.9 2.6 0.00 0.18 0.18 94 1001.4
20260507024024 59 225 0.9 1.7 0.00 0.18 0.18 94 1001.4
20260507023518 59 225 0.9 1.7 0.00 0.18 0.18 94 1001.4
20260507023024 59 203 0.9 1.7 0.00 0.18 0.18 94 1001.4
20260507022518 59 225 0.9 1.7 0.00 0.18 0.18 94 1001.1
20260507022018 59 0.0 1.7 0.00 0.18 0.18 94 1001.1
20260507021516 59 158 0.9 1.7 0.00 0.18 0.18 94 1001.1
20260507021024 59 158 0.9 3.5 0.00 0.18 0.18 94 1001.2
20260507020524 59 203 0.9 1.7 0.00 0.18 0.18 94 1001.2
20260507020016 59 158 0.9 1.7 0.00 0.18 0.18 94 1001.2
20260507015516 59 158 0.9 2.6 0.00 0.18 0.18 94 1001.3
20260507015044 59 158 0.9 3.5 0.00 0.18 0.18 94 1001.3
20260507014524 59 158 0.9 2.6 0.00 0.18 0.18 94 1001.3
20260507014018 59 158 1.7 3.5 0.00 0.18 0.18 94 1001.3
20260507013538 59 203 0.9 3.5 0.00 0.18 0.18 94 1001.3
20260507013024 59 158 1.7 5.2 0.00 0.18 0.18 94 1001.3
20260507012537 59 158 0.9 2.6 0.00 0.18 0.18 94 1001.3
20260507012018 59 158 0.9 3.5 0.00 0.18 0.18 94 1001.3
20260507011518 59 158 0.9 2.6 0.00 0.18 0.18 94 1001.3
20260507011044 59 158 0.9 1.7 0.00 0.18 0.18 94 1001.2
20260507010516 59 158 0.9 2.6 0.00 0.18 0.18 94 1001.2
20260507010016 59 158 1.7 4.3 0.00 0.18 0.18 94 1001.2
20260507005524 59 158 1.7 3.5 0.00 0.18 0.18 94 1001.2
20260507005016 59 180 1.7 4.3 0.00 0.18 0.18 94 1001.2
20260507004524 59 158 1.7 5.2 0.00 0.18 0.18 94 1001.2
20260507004024 59 180 2.6 4.3 0.00 0.18 0.18 94 1000.9
20260507003524 59 158 1.7 4.3 0.00 0.18 0.18 94 1000.9
20260507003018 59 158 1.7 4.3 0.00 0.18 0.18 94 1000.9
20260507002524 59 158 0.9 3.5 0.01 0.18 0.18 94 1000.9
20260507002024 59 158 1.7 4.3 0.01 0.18 0.18 94 1000.9
20260507001516 59 158 1.7 5.2 0.03 0.18 0.18 94 1000.9
20260507001016 59 158 2.6 4.3 0.05 0.18 0.18 94 1000.8
20260507000518 59 158 1.7 4.3 0.05 0.18 0.18 94 1000.8
20260507000016 59 158 2.6 6.1 0.05 0.18 0.18 94 1000.8
20260506235524 59 158 2.6 5.2 0.06 0.18 0.18 94 1000.7
20260506235024 59 158 1.7 3.5 0.07 0.18 0.18 94 1000.7
20260506234524 59 158 1.7 3.5 0.08 0.18 0.18 94 1000.7
20260506234044 60 158 1.7 2.6 0.09 0.18 0.18 94 1000.7
20260506233524 60 158 1.7 3.5 0.09 0.18 0.18 94 1000.7
20260506233024 60 158 1.7 4.3 0.09 0.18 0.18 94 1000.7
20260506232516 60 158 1.7 3.5 0.08 0.17 0.17 94 1000.8
20260506232016 60 158 1.7 3.5 0.08 0.17 0.17 93 1000.8
20260506231516 60 158 1.7 2.6 0.06 0.15 0.15 93 1000.8
20260506231018 60 158 1.7 3.5 0.05 0.13 0.13 93 1000.8
20260506230524 60 158 1.7 3.5 0.05 0.13 0.13 93 1000.8
20260506230038 60 158 1.7 2.6 0.05 0.13 0.13 93 1000.8
20260506225518 60 158 1.7 4.3 0.06 0.12 0.12 93 1000.8
20260506225044 60 158 1.7 3.5 0.06 0.11 0.11 93 1000.8
20260506224524 60 158 1.7 3.5 0.05 0.10 0.10 93 1000.8
20260506224018 60 158 1.7 3.5 0.04 0.09 0.09 93 1000.8
20260506223516 60 158 2.6 5.2 0.04 0.09 0.09 92 1000.8
20260506223044 60 158 1.7 5.2 0.04 0.09 0.09 92 1000.8
20260506222536 60 158 1.7 3.5 0.04 0.09 0.09 92 1000.9
20260506222018 60 158 2.6 5.2 0.04 0.09 0.09 92 1000.9
20260506221544 60 158 2.6 4.3 0.04 0.09 0.09 92 1000.9
20260506221018 60 158 2.6 5.2 0.03 0.08 0.08 92 1001.1
20260506220518 60 158 1.7 3.5 0.03 0.08 0.08 91 1001.1
20260506220016 60 158 2.6 5.2 0.03 0.08 0.08 91 1001.1
20260506215518 60 158 2.6 5.2 0.01 0.06 0.06 91 1000.8
20260506215018 60 158 1.7 3.5 0.01 0.05 0.05 91 1000.8
20260506214518 60 158 2.6 5.2 0.01 0.05 0.05 91 1000.8
20260506214024 60 158 2.6 5.2 0.01 0.05 0.05 90 1001.2
20260506213515 60 158 3.5 7.0 0.01 0.05 0.05 90 1001.2
20260506213036 60 158 3.5 6.1 0.01 0.05 0.05 91 1001.2
20260506212524 60 158 2.6 5.2 0.01 0.05 0.05 91 1001.3
20260506212024 60 158 2.6 4.3 0.02 0.05 0.05 91 1001.3
20260506211518 60 158 1.7 4.3 0.02 0.05 0.05 91 1001.3
20260506211016 60 158 2.6 4.3 0.02 0.05 0.05 90 1001.5
20260506210524 61 158 3.5 6.1 0.02 0.05 0.05 90 1001.5
20260506210038 61 158 2.6 6.1 0.03 0.05 0.05 90 1001.5
20260506205518 61 158 2.6 5.2 0.03 0.05 0.05 90 1001.6
20260506205024 61 158 3.5 8.7 0.02 0.04 0.04 89 1001.6
20260506204524 61 158 2.6 7.0 0.02 0.04 0.04 90 1001.6
20260506204015 62 158 2.6 5.2 0.02 0.04 0.04 90 1001.7
20260506203516 62 158 2.6 6.1 0.02 0.04 0.04 89 1001.7
20260506203017 62 158 1.7 3.5 0.02 0.04 0.04 89 1001.7
20260506202524 62 158 1.7 4.3 0.02 0.04 0.04 89 1001.5
20260506202038 62 158 1.7 4.3 0.02 0.03 0.03 88 1001.5
20260506201516 63 158 2.6 2.6 0.02 0.03 0.03 87 1001.5
20260506201025 63 158 0.9 2.6 0.02 0.03 0.03 87 1001.7
20260506200545 63 158 1.7 3.5 0.02 0.03 0.03 86 1001.7
20260506200019 63 158 0.9 3.5 0.02 0.02 0.02 86 1001.7
20260506195525 63 180 1.7 4.3 0.02 0.02 0.02 86 1001.6
20260506195017 63 158 1.7 4.3 0.02 0.02 0.02 86 1001.6
20260506194516 63 158 1.7 2.6 0.02 0.02 0.02 86 1001.6
20260506194037 64 158 1.7 3.5 0.02 0.02 0.02 85 1001.7
20260506193517 64 158 1.7 3.5 0.02 0.02 0.02 84 1001.7
20260506193045 64 158 0.9 2.6 0.02 0.02 0.02 83 1001.7
20260506192556 64 158 0.9 3.5 0.02 0.02 0.02 82 1001.8
20260506192018 65 158 1.7 3.5 0.01 0.01 0.01 80 1001.8
20260506191525 65 158 0.9 2.6 0.01 0.01 0.01 79 1001.8
20260506191044 66 203 0.9 4.3 0.01 0.01 0.01 78 1001.9
20260506190556 66 225 0.9 3.5 0.01 0.01 0.01 77 1001.9
20260506190015 67 225 1.7 5.2 0.00 0.00 0.00 75 1001.9
20260506185516 67 203 1.7 5.2 0.00 0.00 0.00 74 1001.9
20260506185016 68 158 0.9 2.6 0.00 0.00 0.00 73 1001.9
20260506184537 68 203 1.7 5.2 0.00 0.00 0.00 71 1001.9
20260506184018 68 225 1.7 5.2 0.00 0.00 0.00 70 1001.9
20260506183517 69 203 0.9 2.6 0.00 0.00 0.00 69 1001.9
20260506183036 69 180 1.7 5.2 0.00 0.00 0.00 68 1001.9
20260506182518 70 225 1.7 6.1 0.00 0.00 0.00 66 1001.9
20260506182045 70 203 1.7 3.5 0.00 0.00 0.00 64 1001.9
20260506181524 70 203 0.9 2.6 0.00 0.00 0.00 65 1001.9
20260506181018 71 203 2.6 7.0 0.00 0.00 0.00 63 1002.0
20260506180544 72 203 3.5 6.1 0.00 0.00 0.00 60 1002.0
20260506180018 72 203 2.6 7.0 0.00 0.00 0.00 58 1002.0
20260506175524 72 203 3.5 9.6 0.00 0.00 0.00 58 1001.8
20260506175025 72 180 4.3 8.7 0.00 0.00 0.00 57 1001.8
20260506174518 72 158 4.3 13.0 0.00 0.00 0.00 57 1001.8
20260506174016 72 158 4.3 13.0 0.00 0.00 0.00 58 1001.9
20260506173516 72 158 2.6 7.8 0.00 0.00 0.00 59 1001.9
20260506173018 72 180 1.7 5.2 0.00 0.00 0.00 59 1001.9
20260506172525 72 203 3.5 7.8 0.00 0.00 0.00 59 1002.0
20260506172025 72 203 2.6 8.7 0.00 0.00 0.00 59 1002.0
20260506171524 72 203 0.9 2.6 0.00 0.00 0.00 60 1002.0
20260506171018 72 158 1.7 4.3 0.00 0.00 0.00 60 1002.4
20260506170545 72 203 1.7 3.5 0.00 0.00 0.00 61 1002.4
20260506170019 72 158 2.6 6.1 0.00 0.00 0.00 61 1002.4
20260506165525 72 203 2.6 4.3 0.00 0.00 0.00 61 1002.4
20260506165016 72 158 2.6 5.2 0.00 0.00 0.00 61 1002.4
20260506164516 71 158 2.6 6.1 0.00 0.00 0.00 61 1002.4
20260506164016 71 158 3.5 5.2 0.00 0.00 0.00 61 1002.6
20260506163536 71 180 2.6 4.3 0.00 0.00 0.00 61 1002.6
20260506163016 71 158 1.7 4.3 0.00 0.00 0.00 62 1002.6
20260506162518 71 158 1.7 4.3 0.00 0.00 0.00 62 1002.9
20260506162018 71 158 2.6 6.1 0.00 0.00 0.00 62 1002.9
20260506161524 71 158 2.6 6.1 0.00 0.00 0.00 63 1002.9
20260506161017 71 158 1.7 3.5 0.00 0.00 0.00 63 1003.3
20260506160518 71 158 1.7 5.2 0.00 0.00 0.00 64 1003.3
20260506160105 71 158 1.7 3.5 0.00 0.00 0.00 64 1003.3